TimeHST,TemperatureF,Dew PointF,Humidity,Sea Level PressureIn,VisibilityMPH,Wind Direction,Wind SpeedMPH,Gust SpeedMPH,PrecipitationIn,Events,Conditions,WindDirDegrees,DateUTC
12:53 AM,79.0,64.0,60,30.14,10.0,ENE,19.6,27.6,N/A,,Scattered Clouds,60,2013-07-10 10:53:00
1:53 AM,78.1,66.9,68,30.12,10.0,ENE,15.0,-,N/A,,Mostly Cloudy,60,2013-07-10 11:53:00
2:53 AM,77.0,66.9,71,30.12,10.0,ENE,17.3,-,N/A,,Mostly Cloudy,70,2013-07-10 12:53:00
3:53 AM,78.1,66.0,66,30.12,10.0,ENE,17.3,25.3,N/A,,Mostly Cloudy,60,2013-07-10 13:53:00
4:53 AM,75.0,66.9,76,30.12,10.0,ENE,17.3,26.5,N/A,,Scattered Clouds,60,2013-07-10 14:53:00
5:53 AM,75.0,68.0,79,30.13,10.0,ENE,19.6,26.5,0.00,,Mostly Cloudy,60,2013-07-10 15:53:00
6:53 AM,75.9,66.9,74,30.14,10.0,East,11.5,-,0.00,,Mostly Cloudy,80,2013-07-10 16:53:00
7:53 AM,78.1,68.0,71,30.16,10.0,ENE,15.0,21.9,0.00,Rain,Light Rain,70,2013-07-10 17:53:00
8:53 AM,82.0,64.0,54,30.16,10.0,ENE,18.4,29.9,0.00,,Scattered Clouds,60,2013-07-10 18:53:00
9:53 AM,82.9,63.0,51,30.15,10.0,NE,18.4,32.2,N/A,,Scattered Clouds,50,2013-07-10 19:53:00
10:53 AM,86.0,63.0,46,30.15,10.0,ENE,20.7,29.9,N/A,,Scattered Clouds,70,2013-07-10 20:53:00
11:53 AM,86.0,64.9,49,30.14,10.0,NE,18.4,27.6,N/A,,Mostly Cloudy,50,2013-07-10 21:53:00
12:53 PM,86.0,64.0,48,30.14,10.0,NE,16.1,26.5,N/A,,Scattered Clouds,50,2013-07-10 22:53:00
1:53 PM,84.0,64.9,53,30.13,10.0,ENE,16.1,29.9,N/A,,Mostly Cloudy,60,2013-07-10 23:53:00
2:53 PM,86.0,64.0,48,30.12,10.0,ENE,21.9,31.1,N/A,,Mostly Cloudy,60,2013-07-11 00:53:00
3:53 PM,82.0,66.0,58,30.10,10.0,ENE,23.0,29.9,0.00,Rain,Light Rain,60,2013-07-11 01:53:00
4:53 PM,81.0,64.0,56,30.10,10.0,ENE,20.7,29.9,0.00,,Mostly Cloudy,60,2013-07-11 02:53:00
5:53 PM,80.1,64.0,58,30.10,10.0,NE,16.1,26.5,N/A,,Scattered Clouds,50,2013-07-11 03:53:00
6:53 PM,80.1,64.0,58,30.11,10.0,NE,17.3,25.3,N/A,,Scattered Clouds,50,2013-07-11 04:53:00
7:53 PM,79.0,64.9,62,30.12,10.0,NE,15.0,26.5,N/A,,Mostly Cloudy,40,2013-07-11 05:53:00
8:53 PM,78.1,64.0,62,30.13,10.0,ENE,23.0,29.9,0.00,,Scattered Clouds,60,2013-07-11 06:53:00
9:53 PM,78.1,66.0,66,30.14,10.0,East,10.4,20.7,0.00,Rain,Light Rain,80,2013-07-11 07:53:00
10:53 PM,75.9,64.0,67,30.14,10.0,ENE,21.9,27.6,0.00,,Scattered Clouds,70,2013-07-11 08:53:00
11:53 PM,77.0,64.0,64,30.13,10.0,ENE,11.5,-,0.00,,Mostly Cloudy,70,2013-07-11 09:53:00